Location: Unspecified
(43.4354°N, 0.0000°E)
Time: 09:24:21
(UTC+00:00)

Courier 1B - Pass Details

Date: 18 June 2019
Orbit: 962 x 1209 km, 28.3° (Epoch: 23 July)

Event Time Altitude Azimuth Distance (km) Brightness Sun altitude
Rises 18:17:01 0° 200° (SSW) 3,899 10.7 13.1°
Reaches altitude 10° 18:22:49 10° 164° (SSE) 3,017 9.8 12.1°
Maximum altitude 18:24:12 11° 153° (SSE) 2,992 9.7 11.9°
Drops below altitude 10° 18:25:35 10° 142° (SE) 3,050 9.6 11.7°
Sets 18:31:37 0° 107° (ESE) 4,070 10.1 10.7°
